Wind_Speed
4 4 5 4 4 4 3 2 1 1 1 2 2 3 4 5 6 6 7 7 7 8 9 9 10 11 11 11 12 12 13 13 14 14 14 14 14 14 14 15 15 16 17 17 18 19 19 20 21
5 5 5 4 3 2 2 0 1 1 3 4 5 6 7 7 9 9 9 9 9 9 10 11 11 11 12 12 12 13 13 13 14 14 14 14 14 14 15 16 16 17 18 19 20 20 21 22 22
5 5 4 3 2 2 1 2 3 3 5 6 7 9 9 9 11 11 11 10 10 10 11 11 11 12 12 12 12 12 13 13 13 13 14 14 14 15 16 17 17 18 19 20 21 21 22 23 23
4 4 3 1 1 1 2 4 5 6 8 9 10 10 11 12 11 12 12 11 10 10 11 11 11 11 12 12 12 12 12 13 13 13 14 14 15 16 16 17 18 19 19 20 21 22 22 23 24
3 2 0 1 2 4 5 6 7 9 10 11 12 12 12 14 12 12 12 11 11 11 11 11 11 11 11 12 12 12 12 13 13 13 14 14 15 16 16 17 18 19 20 20 21 22 23 23 24
0 1 3 4 4 6 7 8 10 11 12 13 13 14 13 15 13 13 13 12 12 11 11 12 11 11 11 12 12 12 12 13 13 14 14 15 15 16 17 18 19 20 20 21 22 23 24 24 25
3 4 6 7 7 9 10 11 12 13 14 15 15 14 13 15 13 13 13 13 12 12 11 12 12 12 12 12 12 13 13 13 14 14 15 16 16 17 18 19 20 21 21 22 23 24 25 26 27
5 6 8 9 10 11 12 13 14 15 15 16 16 15 13 15 14 14 14 13 13 13 12 12 12 12 12 12 13 13 13 13 14 15 15 16 17 18 19 20 21 22 22 23 24 25 26 27 28
7 8 9 11 12 13 14 15 16 16 17 17 17 15 13 14 15 14 14 14 14 13 13 12 13 13 13 13 13 13 14 14 14 15 16 16 17 18 19 20 21 22 23 24 25 26 27 28 29
9 10 11 13 14 15 16 17 17 16 17 18 17 15 14 14 15 15 15 15 15 15 14 14 14 14 14 14 14 15 15 15 15 16 16 17 18 19 20 21 22 23 24 25 26 27 28 29 31
12 12 14 15 16 17 17 18 18 18 18 19 17 16 15 16 16 16 16 16 16 16 16 16 16 16 16 16 16 17 17 17 17 18 18 19 20 21 22 23 24 25 26 27 28 30 31 32 33
14 15 16 17 18 18 18 19 19 19 20 18 17 17 15 17 17 17 17 18 18 18 19 18 18 18 18 18 18 19 19 19 20 20 21 22 23 23 24 25 27 28 29 30 31 33 34 35 36
16 17 18 19 19 19 19 19 19 20 21 19 19 19 17 18 18 19 19 20 20 21 21 21 21 21 21 21 21 21 22 22 23 24 24 25 26 27 28 29 30 31 32 33 35 36 37 38 39
17 18 19 20 20 19 19 19 21 22 21 20 20 20 20 19 20 21 21 22 23 23 23 24 24 24 24 24 25 25 25 26 27 28 28 29 30 30 31 32 33 35 36 37 38 39 41 41 42
20 20 20 21 21 20 19 18 24 24 22 21 21 22 21 21 22 22 24 24 25 25 26 26 27 27 27 27 28 28 28 29 30 31 32 33 33 34 35 36 37 38 40 41 42 43 44 45 46
20 21 21 22 21 20 20 18 26 26 24 22 23 23 23 23 24 25 26 27 27 27 27 28 29 30 30 31 31 31 31 32 33 34 35 36 37 38 39 39 40 42 43 44 46 47 48 49 50
21 21 21 23 23 21 21 20 25 28 26 24 24 25 25 25 25 26 27 28 29 29 29 30 30 32 33 34 34 34 34 35 36 37 37 39 40 41 42 43 44 45 46 48 49 50 51 52 53
20 21 21 22 24 24 24 23 24 27 27 26 25 26 26 26 27 27 27 28 29 30 31 32 33 34 36 36 37 37 38 38 39 39 40 42 44 45 46 47 48 49 50 51 53 53 54 55 56
20 21 20 21 22 22 24 25 25 26 27 27 27 27 27 27 28 28 28 29 30 31 32 33 35 36 38 38 39 40 40 41 41 42 43 45 47 48 49 50 51 53 54 54 56 57 57 58 59
21 21 21 21 22 23 23 25 26 26 26 26 26 27 27 27 28 28 28 29 31 32 33 35 36 37 39 40 41 42 43 43 44 45 47 49 50 52 53 54 55 56 57 58 59 60 60 61 61
20 21 21 21 20 22 22 23 26 26 26 26 26 26 27 27 28 29 29 30 31 32 34 36 37 38 39 41 43 44 45 46 47 49 51 52 53 55 56 57 59 60 60 61 62 63 63 63 63
20 21 22 22 21 20 22 21 26 27 26 26 26 26 27 27 28 29 30 31 32 33 35 36 38 39 40 42 44 46 47 48 49 52 53 54 56 58 59 61 62 63 63 64 64 65 65 65 65
21 21 22 22 22 21 22 22 24 27 26 27 27 27 28 28 29 29 30 32 33 34 35 37 39 40 42 44 45 47 49 50 52 54 55 57 58 60 61 63 64 65 66 66 66 66 66 66 66
22 22 23 23 23 22 22 23 24 27 27 28 29 29 29 30 30 31 31 32 34 35 36 38 40 42 44 46 48 50 51 53 55 56 58 60 61 62 63 64 65 67 67 68 68 68 68 68 67
23 24 25 25 24 24 24 25 26 29 30 31 31 31 31 31 31 32 33 34 36 37 38 40 42 44 46 48 50 52 53 55 57 58 60 62 63 63 64 65 66 67 67 68 69 69 68 68 68
24 25 27 28 28 26 24 24 26 31 33 34 33 32 32 32 34 35 36 37 37 38 40 41 43 45 47 49 50 52 54 56 57 59 61 62 63 64 66 67 67 67 67 68 69 69 69 69 69
25 26 27 29 31 31 28 27 28 31 35 36 37 36 34 34 35 36 37 37 39 40 41 43 45 46 48 50 52 53 55 57 58 60 62 63 64 66 67 68 68 68 68 69 70 70 70 70 70
26 27 29 30 33 35 33 30 31 34 36 37 39 38 36 35 36 37 38 39 40 42 43 44 46 48 49 51 53 55 56 58 59 61 62 63 64 65 67 68 68 69 69 70 71 71 71 71 71
25 27 29 32 33 37 38 34 33 35 36 38 38 38 37 38 39 40 41 42 43 43 45 46 48 49 51 52 54 55 56 58 59 61 62 63 65 66 67 68 70 71 71 71 71 71 71 71 71
28 28 30 33 35 36 39 38 34 37 39 39 40 41 41 42 42 43 44 44 45 46 48 49 50 51 53 54 55 57 58 59 60 61 63 64 65 66 68 69 70 70 70 69 69 68 69 69 68
Wind_Direction
120 124 125 128 134 137 102 86 80 286 279 283 287 292 295 299 298 294 293 290 285 282 281 281 281 281 281 282 282 282 283 284 285 285 286 286 287 287 287 287 287 286 287 286 286 285 284 283 282
115 118 120 122 138 118 73 25 292 306 289 288 289 291 293 296 294 292 290 288 284 282 282 283 282 283 283 284 284 284 286 287 288 288 289 290 290 291 291 290 289 289 289 288 288 287 286 284 283
114 114 118 120 113 67 2 319 319 308 296 294 294 295 295 294 292 291 288 285 282 281 281 282 283 284 285 285 286 287 289 290 291 292 292 293 294 294 294 293 292 292 291 291 290 288 287 286 285
113 114 116 120 36 11 322 313 314 303 299 298 297 296 297 295 292 290 288 284 281 279 280 282 284 285 285 286 288 289 291 292 294 295 296 297 298 298 297 296 296 296 295 294 293 292 290 289 288
112 106 75 338 334 323 312 306 304 300 298 297 298 297 296 292 291 288 287 283 280 280 281 282 284 285 286 287 289 291 293 295 297 298 299 300 300 300 301 300 300 300 299 298 297 295 294 293 291
198 316 312 318 314 306 305 305 302 300 299 297 296 297 296 290 288 285 285 282 280 279 280 282 284 285 286 288 290 292 294 296 298 300 301 301 302 302 303 303 303 302 301 300 299 297 296 294 293
289 306 310 312 311 307 308 310 304 301 300 298 296 294 293 288 286 283 282 280 279 278 279 282 284 286 287 289 292 294 295 297 299 301 302 303 303 303 303 304 304 304 304 303 301 300 298 296 294
288 299 305 308 309 307 310 311 305 303 301 299 296 294 291 283 283 281 279 278 276 276 277 280 284 286 288 290 293 295 297 298 300 302 303 304 304 305 306 306 306 306 306 305 304 302 300 298 297
286 294 300 304 307 308 310 309 306 304 302 299 296 295 289 282 280 278 276 275 275 276 277 277 281 284 286 289 291 294 296 299 300 302 303 305 306 307 307 308 308 308 307 307 306 305 304 302 300
285 292 298 304 307 308 309 309 306 304 300 296 297 296 289 281 278 276 274 273 274 275 276 276 278 280 283 286 289 291 294 296 298 299 301 303 304 305 306 307 308 308 308 309 308 307 307 305 304
285 291 296 302 305 307 307 307 305 304 298 296 297 292 285 280 277 275 273 273 274 275 275 276 277 278 280 283 286 287 289 292 293 295 297 299 300 302 303 304 305 306 307 308 308 308 307 306 305
285 291 295 298 302 305 306 306 304 301 296 298 295 288 283 279 277 275 274 273 273 273 273 275 277 277 278 280 282 284 287 289 291 292 294 295 297 298 299 301 302 303 304 305 306 306 306 306 305
287 292 296 298 302 304 306 305 303 298 297 298 293 289 285 281 278 275 273 271 270 271 272 273 275 276 278 279 280 282 284 286 288 289 290 292 293 295 296 298 299 301 302 302 303 304 304 304 304
288 292 295 297 301 304 306 305 299 295 298 297 295 292 288 283 279 277 274 271 271 270 271 272 273 275 277 278 280 281 282 284 285 287 288 290 291 292 294 295 297 298 299 300 301 302 303 303 303
290 292 295 297 300 303 305 305 295 296 299 300 296 292 289 285 281 277 275 274 273 272 272 272 273 275 277 278 279 280 281 283 284 285 287 288 289 291 292 293 295 296 297 298 299 300 301 302 302
290 293 295 296 298 302 305 305 297 298 301 301 296 293 291 287 283 279 277 276 275 274 274 273 274 275 276 277 278 280 281 282 283 284 286 287 288 289 290 292 293 295 296 297 298 299 300 300 300
292 295 297 300 303 305 303 301 298 300 302 300 297 295 293 290 286 282 280 279 279 278 276 275 274 274 275 276 278 279 280 281 282 284 285 286 287 288 289 291 292 293 294 295 296 297 298 298 298
297 301 303 304 305 308 306 303 299 299 301 301 298 296 294 292 289 286 284 283 281 280 278 276 275 274 275 277 278 279 280 280 282 284 284 284 286 287 288 290 291 292 293 294 295 296 296 297 297
302 303 304 304 305 307 307 305 302 301 301 301 300 298 297 295 292 290 288 285 283 282 280 278 277 276 277 278 279 279 280 281 282 283 283 284 285 287 288 289 290 291 292 293 293 294 295 296 296
305 305 305 306 307 308 307 305 304 303 303 302 301 300 299 298 296 294 292 289 287 285 283 281 280 279 280 280 280 281 281 282 283 283 283 284 285 287 288 289 289 290 291 291 292 293 293 294 295
308 308 308 308 309 310 308 307 305 304 304 305 304 303 302 301 299 297 295 292 289 287 285 284 283 282 281 281 282 282 282 283 283 283 283 285 286 287 288 288 289 289 290 291 291 292 293 293 294
309 309 311 311 312 313 312 312 308 307 309 308 307 306 304 303 301 299 296 294 292 290 288 286 285 284 283 283 283 283 284 284 284 283 284 285 285 286 287 288 288 288 289 290 290 291 292 292 293
311 311 312 313 314 314 312 310 309 310 312 310 309 309 307 305 303 301 298 295 293 291 289 288 287 286 285 284 284 284 284 284 284 284 285 285 285 286 286 287 287 288 288 289 290 290 291 292 293
312 312 311 311 311 311 314 315 314 313 313 311 311 312 311 309 306 303 300 298 296 294 292 290 289 288 287 286 286 285 285 284 284 285 285 285 285 286 286 287 287 288 288 289 289 290 291 292 292
311 312 312 313 315 318 320 319 317 314 313 311 312 313 312 310 307 305 302 300 299 297 295 293 291 290 289 289 288 287 287 286 287 287 287 287 287 287 286 286 286 287 288 288 289 290 291 291 292
313 314 314 315 315 315 316 316 315 312 311 310 311 312 312 312 309 307 305 303 302 300 297 296 294 293 292 291 290 289 289 288 288 288 288 288 288 288 287 287 287 287 287 288 289 290 291 291 291
313 312 312 312 311 312 314 315 313 312 313 313 314 315 317 314 311 308 306 305 303 301 299 297 296 295 294 293 292 291 290 290 289 289 289 289 289 288 288 289 288 288 288 289 289 290 290 291 291
310 312 312 312 313 313 314 318 321 317 315 314 314 316 317 313 311 309 308 306 304 303 301 300 299 297 296 295 294 293 292 292 291 291 291 291 290 290 290 290 290 290 290 289 289 290 290 290 291
307 309 310 310 311 312 312 318 322 315 313 312 314 315 315 313 312 311 309 308 306 305 303 302 301 300 299 298 297 296 295 294 294 293 293 292 292 291 291 290 290 291 291 290 289 289 289 290 290
306 308 309 309 310 311 311 317 320 314 312 313 315 316 315 314 312 311 310 308 307 305 304 303 302 301 300 299 298 297 296 295 295 294 293 293 292 292 292 292 292 291 291 290 290 290 290 290 290
Height
5860 5860 5861 5862 5862 5862 5862 5862 5861 5862 5862 5862 5862 5862 5862 5862 5862 5864 5862 5861 5861 5861 5861 5861 5860 5860 5860 5860 5860 5859 5859 5859 5858 5858 5857 5857 5857 5856 5856 5856 5856 5855 5855 5855 5855 5855 5855 5855 5855
5860 5861 5862 5862 5862 5862 5862 5861 5861 5862 5863 5862 5862 5861 5861 5861 5860 5860 5859 5859 5859 5859 5859 5859 5859 5858 5858 5858 5857 5857 5857 5856 5856 5855 5855 5854 5854 5853 5853 5853 5853 5852 5852 5852 5852 5851 5851 5851 5851
5861 5861 5862 5863 5862 5862 5862 5862 5862 5862 5862 5862 5861 5860 5860 5860 5859 5858 5858 5857 5857 5857 5857 5857 5856 5856 5856 5855 5855 5854 5854 5853 5853 5852 5852 5851 5851 5851 5850 5850 5849 5849 5849 5848 5848 5847 5847 5847 5846
5862 5862 5863 5863 5862 5862 5861 5862 5861 5861 5861 5860 5860 5859 5858 5858 5857 5856 5855 5855 5855 5855 5855 5854 5854 5854 5853 5853 5852 5852 5851 5851 5850 5850 5849 5848 5848 5847 5847 5846 5846 5845 5845 5844 5844 5843 5842 5842 5841
5862 5863 5863 5862 5861 5861 5861 5861 5860 5860 5860 5859 5858 5857 5857 5855 5855 5854 5853 5853 5853 5853 5852 5852 5852 5851 5851 5850 5850 5849 5849 5848 5847 5847 5846 5845 5845 5844 5844 5843 5842 5842 5841 5840 5839 5839 5838 5837 5837
5863 5863 5863 5861 5861 5861 5860 5860 5859 5858 5858 5857 5856 5855 5855 5853 5852 5851 5851 5850 5850 5850 5850 5849 5849 5849 5848 5848 5847 5846 5846 5845 5844 5844 5843 5842 5842 5841 5840 5839 5839 5838 5837 5836 5835 5834 5833 5832 5831
5863 5862 5861 5860 5860 5859 5859 5858 5857 5856 5855 5854 5853 5852 5852 5850 5850 5849 5848 5848 5848 5848 5848 5847 5847 5846 5846 5845 5844 5844 5843 5842 5841 5841 5840 5839 5838 5837 5837 5836 5835 5834 5833 5832 5831 5830 5828 5827 5826
5861 5862 5860 5859 5859 5858 5857 5856 5855 5854 5853 5852 5850 5850 5850 5849 5847 5847 5846 5845 5845 5845 5845 5845 5844 5843 5843 5842 5841 5841 5840 5839 5838 5838 5837 5836 5835 5834 5833 5832 5831 5829 5828 5827 5826 5825 5823 5822 5821
5860 5861 5859 5858 5857 5857 5855 5854 5853 5852 5850 5849 5847 5847 5847 5846 5845 5844 5843 5843 5843 5842 5842 5842 5841 5840 5840 5839 5838 5838 5837 5836 5835 5834 5833 5832 5831 5830 5829 5828 5826 5825 5824 5822 5821 5819 5818 5816 5815
5859 5859 5858 5857 5855 5854 5853 5852 5851 5849 5848 5846 5845 5844 5843 5842 5842 5841 5841 5840 5840 5839 5839 5839 5838 5838 5837 5836 5835 5834 5833 5833 5832 5831 5830 5829 5827 5826 5825 5823 5822 5820 5819 5817 5816 5814 5812 5810 5808
5857 5856 5855 5854 5853 5852 5851 5849 5848 5846 5845 5843 5842 5841 5841 5839 5838 5838 5837 5837 5837 5836 5835 5835 5835 5834 5833 5833 5832 5831 5830 5829 5828 5827 5826 5824 5823 5822 5820 5819 5817 5815 5814 5812 5810 5808 5806 5804 5802
5855 5854 5853 5852 5850 5849 5848 5846 5845 5843 5841 5839 5838 5837 5837 5836 5835 5834 5834 5833 5833 5832 5831 5831 5831 5830 5829 5829 5828 5827 5826 5824 5823 5822 5821 5819 5818 5817 5815 5814 5812 5810 5808 5806 5803 5801 5799 5797 5794
5852 5851 5850 5848 5847 5846 5845 5843 5841 5839 5837 5836 5834 5833 5833 5832 5831 5830 5830 5829 5828 5828 5827 5826 5826 5825 5825 5824 5823 5822 5821 5820 5818 5817 5815 5814 5812 5811 5809 5807 5805 5803 5801 5799 5796 5794 5791 5789 5786
5848 5847 5846 5845 5844 5843 5842 5839 5836 5835 5833 5832 5830 5830 5829 5828 5827 5826 5825 5824 5824 5823 5822 5822 5821 5820 5819 5819 5817 5816 5815 5814 5812 5810 5809 5807 5806 5804 5802 5800 5798 5795 5793 5791 5788 5785 5782 5780 5777
5844 5844 5843 5841 5840 5839 5838 5837 5831 5830 5829 5828 5826 5825 5824 5823 5822 5821 5820 5819 5819 5818 5817 5817 5815 5814 5813 5812 5811 5810 5809 5807 5806 5804 5802 5800 5798 5796 5794 5792 5789 5787 5784 5781 5778 5776 5773 5770 5766
5840 5840 5839 5837 5836 5835 5835 5833 5827 5825 5824 5823 5822 5820 5819 5818 5817 5816 5814 5814 5813 5813 5812 5811 5810 5808 5807 5806 5804 5803 5802 5800 5798 5796 5794 5792 5789 5787 5785 5783 5780 5777 5775 5771 5768 5765 5762 5759 5755
5836 5836 5834 5833 5831 5830 5829 5827 5823 5820 5819 5818 5817 5815 5814 5813 5811 5810 5809 5808 5807 5806 5805 5805 5803 5801 5800 5798 5797 5796 5794 5792 5790 5788 5786 5783 5780 5778 5776 5773 5770 5767 5764 5761 5757 5754 5751 5747 5743
5833 5832 5830 5828 5827 5825 5823 5821 5819 5816 5814 5813 5812 5810 5808 5807 5805 5804 5803 5802 5801 5799 5798 5797 5796 5794 5792 5791 5789 5787 5786 5784 5782 5779 5777 5774 5771 5768 5765 5763 5759 5756 5753 5749 5745 5742 5738 5735 5731
5829 5828 5827 5825 5823 5822 5819 5816 5814 5811 5810 5808 5806 5804 5803 5801 5799 5798 5797 5795 5794 5792 5791 5789 5788 5786 5784 5783 5781 5779 5777 5775 5773 5770 5767 5763 5760 5757 5754 5751 5748 5744 5741 5737 5733 5729 5726 5722 5717
5825 5824 5823 5822 5819 5817 5815 5811 5809 5806 5805 5803 5801 5799 5797 5796 5794 5792 5791 5789 5787 5785 5783 5782 5780 5778 5776 5774 5772 5770 5768 5766 5763 5760 5756 5753 5749 5746 5743 5739 5735 5732 5728 5724 5720 5716 5712 5708 5703
5821 5820 5818 5817 5815 5813 5811 5808 5804 5801 5800 5798 5796 5794 5792 5790 5788 5786 5784 5782 5780 5778 5776 5774 5772 5770 5768 5765 5763 5760 5758 5755 5753 5749 5745 5742 5738 5734 5730 5726 5722 5718 5714 5710 5706 5701 5697 5693 5689
5818 5816 5814 5812 5810 5809 5807 5804 5799 5796 5795 5793 5792 5790 5787 5785 5783 5780 5777 5775 5773 5770 5768 5766 5763 5761 5758 5755 5753 5750 5747 5745 5741 5737 5734 5730 5725 5721 5717 5713 5708 5704 5700 5696 5691 5686 5682 5677 5673
5814 5812 5810 5808 5806 5805 5802 5800 5797 5792 5791 5788 5787 5784 5782 5780 5777 5774 5771 5768 5765 5763 5760 5757 5754 5751 5748 5746 5742 5739 5736 5733 5728 5724 5721 5717 5712 5708 5703 5698 5693 5689 5684 5680 5675 5671 5666 5662 5657
5809 5808 5807 5804 5802 5801 5798 5795 5792 5788 5786 5783 5781 5779 5776 5773 5770 5767 5764 5761 5758 5755 5751 5748 5745 5742 5738 5735 5731 5727 5723 5719 5715 5711 5707 5702 5698 5694 5689 5683 5678 5673 5668 5664 5659 5654 5650 5645 5641
5806 5804 5802 5799 5797 5796 5793 5790 5788 5783 5780 5778 5776 5773 5770 5767 5763 5759 5756 5753 5749 5746 5742 5739 5735 5731 5727 5723 5719 5715 5710 5706 5701 5697 5692 5687 5682 5678 5673 5667 5662 5657 5652 5647 5642 5637 5633 5628 5623
5801 5799 5797 5794 5792 5791 5790 5787 5784 5778 5774 5771 5769 5766 5764 5760 5755 5752 5748 5744 5740 5736 5732 5728 5724 5720 5715 5711 5706 5701 5697 5692 5687 5682 5676 5671 5666 5661 5656 5651 5646 5641 5636 5630 5625 5620 5615 5610 5605
5797 5794 5792 5789 5785 5784 5784 5782 5779 5773 5767 5763 5760 5758 5756 5752 5747 5743 5739 5735 5731 5726 5722 5718 5713 5708 5703 5698 5693 5688 5683 5677 5672 5667 5661 5655 5650 5644 5638 5633 5629 5624 5619 5613 5607 5603 5598 5592 5587
5792 5789 5787 5783 5779 5775 5775 5775 5773 5766 5761 5757 5753 5750 5747 5744 5739 5735 5730 5726 5721 5716 5711 5706 5701 5696 5691 5685 5680 5674 5668 5663 5657 5652 5646 5640 5634 5627 5621 5615 5610 5605 5601 5595 5589 5584 5579 5574 5569
5788 5786 5781 5777 5774 5770 5765 5769 5767 5759 5754 5750 5746 5743 5739 5735 5730 5726 5721 5716 5711 5706 5701 5695 5690 5684 5678 5672 5666 5660 5654 5648 5641 5635 5629 5623 5617 5610 5604 5598 5592 5587 5581 5576 5571 5566 5560 5554 5550
5782 5779 5776 5772 5768 5764 5759 5761 5758 5752 5745 5741 5738 5734 5730 5725 5720 5715 5711 5705 5700 5694 5689 5683 5677 5671 5665 5658 5652 5645 5639 5632 5625 5619 5612 5606 5599 5593 5586 5580 5574 5568 5562 5556 5551 5546 5541 5535 5531